Weather History for Paducah, KY

Change the Weather History Date:

Friday, August 22, 2014

  Actual Average Record
Temperature  
Mean Temperature 86 °F 77 °F  
Max Temperature 96 °F 89 °F 101 °F (1987)
Min Temperature 76 °F 66 °F 50 °F (1956)
Degree Days  
Heating Degree Days 0 0  
Month to date heating degree days 0 0  
Since 1 June heating degree days 0 4  
Since 1 July heating degree days 0 0  
Cooling Degree Days 21 12  
Month to date cooling degree days 307 284  
Year to date cooling degree days 1306 1207  
Since 1 June cooling degree days 1028 1035  
Growing Degree Days 36 (Base 50)    
Moisture  
Dew Point 75 °F    
Average Humidity 70    
Maximum Humidity 88    
Minimum Humidity 52    
Precipitation  
Precipitation 0.00 in 0.09 in 1.26 in (1964)
Month to date precipitation 2.79 2.00  
Year to date precipitation 31.71 31.72  
Snow  
Snow 0.00 in 0.00 in 0.00 in (2002)
Month to date snowfall 0.0 0.0  
Since 1 June snowfall 0.0 0.0  
Since 1 July snowfall 0.0 0.0  
Snow Depth 0.00 in    
Sea Level Pressure  
Sea Level Pressure 29.99 in    
Wind  
Wind Speed 6 mph (SW)    
Max Wind Speed 12 mph    
Max Gust Speed 14 mph    
Visibility 10 miles    
Events      
T = Trace of Precipitation, MM = Missing Value Source: NWS Daily Summary

Daily Weather History Graph

Daily Weather History Graph

Search for Another Location

Airport:

Trip Planner

Search our weather history database for the weather conditions in past years. The results will help you decide how hot, cold, wet, or windy it might be!

Date:

Astronomy

Aug. 22, 2014 Rise Set
Actual Time 6:17 AM CDT 7:37 PM CDT
Civil Twilight 5:50 AM CDT 8:04 PM CDT
Nautical Twilight 5:17 AM CDT 8:37 PM CDT
Astronomical Twilight 4:43 AM CDT 9:11 PM CDT
Moon 3:41 AM CDT (8/22) 5:44 PM CDT (8/22)
Length of Visible Light 14h 14m
Length of Day
13h 19m
Waning Crescent, 7% of the Moon is Illuminated
Aug 22
Waning Crescent
Aug 25
New
Sep 2
First Quarter
Sep 8
Full
Sep 15
Last Quarter

Hourly Weather History & Observations

Time (CDT) Temp. Heat Index Dew Point Humidity Pressure Visibility Wind Dir Wind Speed Gust Speed Precip Events Conditions
12:53 AM 80.1 °F 84.5 °F 73.9 °F 81% 30.02 in 10.0 mi SSW 6.9 mph - N/A   Clear
1:53 AM 80.1 °F 84.2 °F 73.0 °F 79% 30.00 in 10.0 mi SSW 5.8 mph - N/A   Clear
2:53 AM 79.0 °F - 73.0 °F 82% 29.98 in 10.0 mi SW 5.8 mph - N/A   Clear
3:53 AM 78.8 °F - 73.4 °F 83% 29.99 in 10.0 mi SW 6.9 mph - N/A   Clear
4:53 AM 77.0 °F - 73.0 °F 88% 29.98 in 10.0 mi SW 5.8 mph - N/A   Clear
5:53 AM 77.0 °F - 73.0 °F 88% 30.00 in 10.0 mi SW 5.8 mph - N/A   Clear
6:53 AM 77.0 °F - 73.4 °F 89% 30.04 in 8.0 mi SSW 5.8 mph - N/A   Clear
7:53 AM 79.0 °F - 73.9 °F 84% 30.03 in 9.0 mi SW 8.1 mph - N/A   Clear
8:53 AM 82.9 °F 89.4 °F 73.9 °F 74% 30.03 in 10.0 mi SW 8.1 mph - N/A   Clear
9:53 AM 86.0 °F 96.0 °F 75.9 °F 72% 30.04 in 10.0 mi SW 4.6 mph - N/A   Clear
10:53 AM 88.0 °F 98.5 °F 75.9 °F 67% 30.04 in 10.0 mi WSW 10.4 mph - N/A   Clear
11:53 AM 90.0 °F 101.3 °F 75.9 °F 63% 30.03 in 10.0 mi WSW 5.8 mph - N/A   Partly Cloudy
12:53 PM 91.9 °F 103.9 °F 75.9 °F 59% 30.01 in 10.0 mi WSW 6.9 mph - N/A   Clear
1:53 PM 93.9 °F 104.0 °F 73.9 °F 52% 29.99 in 10.0 mi Variable 3.5 mph - N/A   Clear
2:53 PM 95.0 °F 106.7 °F 75.0 °F 52% 29.97 in 10.0 mi Variable 6.9 mph - N/A   Partly Cloudy
3:53 PM 93.9 °F 105.4 °F 75.0 °F 54% 29.95 in 10.0 mi South 6.9 mph - N/A   Partly Cloudy
4:53 PM 93.0 °F 104.6 °F 75.0 °F 56% 29.94 in 10.0 mi SW 5.8 mph - N/A   Clear
5:53 PM 91.9 °F 101.3 °F 73.9 °F 55% 29.93 in 10.0 mi SW 6.9 mph - N/A   Clear
6:53 PM 89.1 °F 100.2 °F 75.9 °F 65% 29.94 in 10.0 mi SW 4.6 mph - N/A   Clear
7:53 PM 87.1 °F 97.3 °F 75.9 °F 69% 29.93 in 10.0 mi SSW 3.5 mph - N/A   Clear
8:53 PM 84.9 °F 94.1 °F 75.9 °F 74% 29.94 in 10.0 mi South 4.6 mph - N/A   Clear
9:53 PM 82.9 °F 90.8 °F 75.9 °F 79% 29.96 in 10.0 mi South 4.6 mph - N/A   Clear
10:53 PM 82.9 °F 90.2 °F 75.0 °F 77% 29.96 in 10.0 mi South 5.8 mph - N/A   Clear
11:53 PM 82.9 °F 90.2 °F 75.0 °F 77% 29.95 in 10.0 mi SSW 4.6 mph - N/A   Clear